Regional Weather Roundup
Issued by NWS

Home | Current Version | Previous Version | Graphics & Text | Print | Product List | Glossary On
Versions: 1 2 3 4 5 6 7 8 9 10 11 12 13 14 15 16 17 18 19 20 21 22 23 24 25 26 27 28 29 30 31 32 33 34 35 36 37 38 39 40 41 42 43 44 45 46 47 48 49 50
000
ASUS43 KLSX 021659
RWRMO

WEATHER SUMMARY FOR MISSOURI
NATIONAL WEATHER SERVICE SPRINGFIELD MO
1200 PM CDT TUE JUN 02 2015

NOTE: "FAIR" INDICATES FEW OR NO CLOUDS BELOW 12,000 FEET WITH NO
       SIGNIFICANT WEATHER AND/OR OBSTRUCTIONS TO VISIBILITY.
       CURRENT SKY AND/OR WEATHER CONDITIONS ARE NOT AVAILABLE FOR
       CHILLICOTHE AND FARMINGTON.

MOZ001>031-035>038-043-044-053-054-021800-
...NORTHERN AND WESTERN MISSOURI...

CITY           SKY/WX    TMP DP  RH WIND       PRES   REMARKS
KANSAS CTY INT PTSUNNY   68  59  73 SE10      30.06S
KANSAS C DTWN  CLOUDY    68  57  68 SE10      30.05F
LEE`S SUMMIT   CLOUDY    67  57  70 SE10      30.07F
ST JOSEPH      PTSUNNY   69  58  67 S10       30.05S
CHILLICOTHE      N/A     66  56  70 SE10G17   30.09F
KIRKSVILLE     CLOUDY    66  56  70 SE12      30.12S

$$
MOZ066>068-077>081-088>096-101>105-021800-
...SOUTHWEST MISSOURI...

CITY           SKY/WX    TMP DP  RH WIND       PRES   REMARKS
SPRINGFIELD    CLOUDY    68  60  75 S9        30.09S
JOPLIN         PTSUNNY   75  64  68 SE3       30.06F

$$
MOZ032>034-039>042-045>050-055>058-069>072-021800-
...CENTRAL MISSOURI...

CITY           SKY/WX    TMP DP  RH WIND       PRES   REMARKS
COLUMBIA       CLOUDY    67  56  67 SE6       30.12S
JEFFERSON CITY CLOUDY    67  55  65 SE6       30.11F
ROLLA          CLOUDY    62  56  80 SE6       30.11S
SEDALIA        CLOUDY    68  56  65 SE9       30.11F
OSAGE BEACH    CLOUDY    66  54  63 SE5       30.12S

$$
MOZ051-052-059>065-021800-
...EAST CENTRAL MISSOURI...

CITY           SKY/WX    TMP DP  RH WIND       PRES   REMARKS
ST LOUIS INTL  PTSUNNY   71  54  54 E12       30.12F
SPIRIT OF STL  PTSUNNY   68  56  65 E5        30.10F
ST CHARLES     MOSUNNY   70  56  61 E10       30.11F

$$
MOZ072>076-082>087-097>100-106>115-021800-
...SOUTH CENTRAL AND SOUTHEAST MISSOURI...

CITY           SKY/WX    TMP DP  RH WIND       PRES   REMARKS
CAPE GIRARDEAU CLOUDY    63  56  78 N5        30.12F
FARMINGTON     CLOUDY    59  55  88 NE5       30.16S
POPLAR BLUFF   CLOUDY    62  55  77 N12       30.11F
WEST PLAINS    CLOUDY    65  55  70 E6        30.12F

$$


USA.gov is the U.S. government's official web portal to all federal, state and local government web resources and services.